Ellensburg, WA

9:31 AM PST on February 23, 2017 (GMT -0800)
Bowers

Weather History for KELN - December, 2012

Change the Weather History Date:

Friday, December 7, 2012

  Actual Average (KYKM) Record (KYKM)
Temperature  
Mean Temperature 34 °F -  
Max Temperature 41 °F 38 °F 58 °F (1973)
Min Temperature 28 °F 23 °F -2 °F (1956)
Degree Days  
Heating Degree Days 30    
Moisture  
Dew Point 28 °F    
Average Humidity 80    
Maximum Humidity 88    
Minimum Humidity 64    
Precipitation  
Precipitation 0.06 in - - ()
Sea Level Pressure  
Sea Level Pressure 29.98 in    
Wind  
Wind Speed 6 mph (NW)    
Max Wind Speed 29 mph    
Max Gust Speed 43 mph    
Visibility 7 miles    
Events Fog , Rain , Snow    
Averages and records for this station are not official NWS values.
T = Trace of Precipitation, MM = Missing Value Source: NWS Daily Summary

Daily Weather History Graph

Daily Weather History Graph

Search for Another Location

Airport or City:

Trip Planner

Search our weather history database for the weather conditions in past years. The results will help you decide how hot, cold, wet, or windy it might be!

Date:

Astronomy

Dec. 07, 2012 Rise Set
Actual Time 7:34 AM PST 4:12 PM PST
Civil Twilight 6:59 AM PST 4:48 PM PST
Nautical Twilight 6:20 AM PST 5:26 PM PST
Astronomical Twilight 5:44 AM PST 6:03 PM PST
Moon 12:37 AM PST (12/7) 12:32 PM PST (12/7)
Length of Visible Light 9h 48m
Length of Day
8h 38m
Last Quarter, 37% of the Moon is Illuminated
Dec 7
Last Quarter
Dec 13
New
Dec 19
First Quarter
Dec 28
Full
Jan 4
Last Quarter

Hourly Weather History & Observations

Time (PST) Temp. Windchill Dew Point Humidity Pressure Visibility Wind Dir Wind Speed Gust Speed Precip Events Conditions
12:04 AM 28.4 °F - 24.8 °F 86% 30.04 in 2.0 mi Calm Calm - N/A   Mist
12:11 AM 28.4 °F 23.3 °F 24.8 °F 86% 30.04 in 10.0 mi NNW 4.6 mph - N/A   Unknown
12:25 AM 28.4 °F - 24.8 °F 86% 30.04 in 2.5 mi Calm Calm - N/A   Partly Cloudy
12:29 AM 28.4 °F - 24.8 °F 86% 30.04 in 1.0 mi Calm Calm - N/A   Mist
12:36 AM 28.4 °F 24.6 °F 24.8 °F 86% 30.04 in 0.5 mi South 3.5 mph - N/A Fog Light Freezing Fog
12:53 AM 28.0 °F - 24.1 °F 85% 30.08 in 0.8 mi Calm Calm - N/A   Mist
12:56 AM 28.4 °F - 24.8 °F 86% 30.03 in 1.2 mi Calm Calm - N/A   Mostly Cloudy
1:00 AM 28.4 °F - 24.8 °F 86% 30.03 in 4.0 mi Calm Calm - N/A   Scattered Clouds
1:53 AM 28.9 °F 23.9 °F 25.0 °F 85% 30.06 in 10.0 mi SW 4.6 mph - N/A   Clear
2:49 AM 28.4 °F 23.3 °F 24.8 °F 86% 30.01 in 6.0 mi East 4.6 mph - N/A   Haze
2:53 AM 28.9 °F 23.9 °F 25.0 °F 85% 30.05 in 6.0 mi ENE 4.6 mph - N/A   Partly Cloudy
3:53 AM 30.9 °F 26.2 °F 27.0 °F 85% 30.03 in 10.0 mi ESE 4.6 mph - N/A   Overcast
4:53 AM 33.1 °F 26.1 °F 28.9 °F 85% 30.02 in 10.0 mi NE 8.1 mph - N/A   Overcast
5:53 AM 33.1 °F 30.0 °F 28.9 °F 85% 30.01 in 10.0 mi NE 3.5 mph - N/A   Overcast
6:53 AM 32.0 °F - 28.9 °F 88% 29.99 in 6.0 mi Calm Calm - 0.00 in   Overcast
7:53 AM 34.0 °F - 30.0 °F 85% 29.97 in 9.0 mi Calm Calm - 0.00 in   Overcast
8:53 AM 35.1 °F - 30.0 °F 82% 29.95 in 9.0 mi Calm Calm - 0.00 in   Overcast
9:53 AM 35.1 °F 32.2 °F 30.9 °F 85% 29.95 in 6.0 mi WNW 3.5 mph - N/A   Overcast
10:53 AM 37.0 °F 31.0 °F 33.1 °F 86% 29.92 in 10.0 mi WNW 8.1 mph - 0.00 in   Overcast
11:53 AM 39.0 °F 31.4 °F 34.0 °F 82% 29.91 in 7.0 mi NNW 12.7 mph 19.6 mph 0.01 in Rain Light Rain
12:05 PM 39.2 °F 30.5 °F 33.8 °F 81% 29.87 in 10.0 mi WNW 16.1 mph - 0.00 in Rain Light Rain
12:38 PM 39.2 °F 33.0 °F 33.8 °F 81% 29.85 in 10.0 mi West 9.2 mph - 0.00 in   Mostly Cloudy
12:53 PM 39.9 °F 34.5 °F 34.0 °F 79% 29.88 in 10.0 mi West 8.1 mph - 0.00 in   Mostly Cloudy
1:31 PM 39.2 °F 31.6 °F 33.8 °F 81% 29.84 in 7.0 mi NW 12.7 mph - 0.02 in Rain Rain
1:53 PM 39.0 °F 32.3 °F 34.0 °F 82% 29.88 in 10.0 mi NNW 10.4 mph - 0.02 in Rain Light Rain
2:53 PM 41.0 °F 35.8 °F 32.0 °F 70% 29.89 in 10.0 mi West 8.1 mph - 0.00 in   Mostly Cloudy
3:53 PM 39.0 °F 31.0 °F 28.0 °F 65% 29.91 in 10.0 mi WNW 13.8 mph - N/A   Scattered Clouds
4:20 PM 35.6 °F 22.7 °F 30.2 °F 81% 29.91 in 1.8 mi NW 28.8 mph 42.6 mph 0.01 in Snow Light Snow
4:25 PM 35.6 °F 23.2 °F 30.2 °F 81% 29.91 in 0.8 mi WNW 26.5 mph 38.0 mph 0.01 in Snow Light Snow
4:36 PM 35.6 °F 24.0 °F 30.2 °F 81% 29.92 in 0.8 mi WNW 23.0 mph 31.1 mph 0.02 in Snow Light Snow
4:39 PM 35.6 °F 24.5 °F 30.2 °F 81% 29.92 in 1.2 mi West 20.7 mph 28.8 mph 0.02 in Snow Light Snow
4:47 PM 35.6 °F 24.0 °F 28.4 °F 75% 29.92 in 3.0 mi West 23.0 mph 29.9 mph 0.03 in Snow Light Snow
4:53 PM 35.1 °F 23.0 °F 28.9 °F 78% 29.96 in 9.0 mi West 24.2 mph 31.1 mph 0.03 in   Overcast
5:05 PM 35.6 °F 23.7 °F 28.4 °F 75% 29.92 in 10.0 mi West 24.2 mph 33.4 mph N/A   Overcast
5:53 PM 36.0 °F 26.3 °F 26.1 °F 67% 29.97 in 10.0 mi WNW 16.1 mph - N/A   Overcast
6:53 PM 36.0 °F 27.5 °F 26.1 °F 67% 29.99 in 10.0 mi WNW 12.7 mph - N/A   Overcast
7:53 PM 36.0 °F 25.0 °F 25.0 °F 64% 30.02 in 10.0 mi WNW 20.7 mph 27.6 mph N/A   Overcast
8:53 PM 34.0 °F 27.2 °F 25.0 °F 70% 30.04 in 10.0 mi WNW 8.1 mph - N/A   Clear
9:53 PM 34.0 °F 24.2 °F 27.0 °F 75% 30.06 in 10.0 mi NW 15.0 mph - N/A   Overcast
10:53 PM 34.0 °F 25.5 °F 27.0 °F 75% 30.06 in 10.0 mi NW 11.5 mph - N/A   Overcast
11:53 PM 32.0 °F 28.7 °F 26.1 °F 79% 30.08 in 10.0 mi NNW 3.5 mph - N/A   Mostly Cloudy